FW0030 Weather Reports


time (UTC)temp
C
wind
direction
speed
KPH
gust
KPH
rain 1hr
cm
rain 24hr
cm
rain mn
cm
humidity
%
barometer
mb
20260504001530 13 287 0.0 0.0 0.00 0.00 0.00 47 1012.2
20260504000026 13 134 0.0 0.0 0.00 0.00 0.00 47 1012.2
20260503234526 14 235 0.0 0.0 0.00 0.00 0.00 46 1012.2
20260503233034 14 293 0.0 0.0 0.00 0.00 0.00 45 1012.3
20260503231523 14 233 0.0 0.0 0.00 0.00 0.00 44 1012.4
20260503230022 14 196 0.0 0.0 0.00 0.00 0.00 44 1012.4
20260503224522 15 256 0.0 0.0 0.00 0.00 0.00 45 1012.5
20260503223020 15 244 0.0 0.0 0.00 0.00 0.00 44 1012.5
20260503221527 15 232 0.0 0.0 0.00 0.00 0.00 44 1012.5
20260503220021 15 227 0.0 0.0 0.00 0.00 0.00 44 1012.5
20260503214520 15 245 0.0 0.0 0.00 0.00 0.00 43 1012.6
20260503213023 15 171 0.0 0.0 0.00 0.00 0.00 43 1012.5
20260503211519 15 250 0.0 0.0 0.00 0.00 0.00 41 1012.4
20260503210018 15 264 0.0 0.0 0.00 0.00 0.00 41 1012.4
20260503204518 15 252 0.0 0.0 0.00 0.00 0.00 42 1012.5
20260503203016 15 194 0.0 0.0 0.00 0.00 0.00 41 1012.7
20260503201512 16 221 0.0 0.0 0.00 0.00 0.00 40 1012.8
20260503200011 16 278 0.0 0.0 0.00 0.00 0.00 42 1013.1
20260503194509 16 274 0.0 0.0 0.00 0.00 0.00 41 1013.3
20260503193004 15 196 0.0 0.0 0.00 0.00 0.00 42 1013.4
20260503191502 15 248 0.0 0.0 0.00 0.00 0.00 43 1013.8
20260503184600 15 266 0.0 0.0 0.00 0.00 0.00 42 1014.2
20260503183057 14 229 0.0 0.0 0.00 0.00 0.00 45 1014.3
20260503181555 15 259 0.0 0.0 0.00 0.00 0.00 42 1014.4
20260503180100 15 269 0.0 0.0 0.00 0.00 0.00 45 1014.6
20260503174554 14 224 0.0 0.0 0.00 0.00 0.00 44 1014.8
20260503173048 13 293 0.0 0.0 0.00 0.00 0.00 45 1015.1
20260503171549 14 199 0.0 0.0 0.00 0.00 0.00 46 1015.2
20260503081513 -1 136 0.0 0.0 0.00 0.05 0.00 95 1016.7
20260503071508 0 136 0.0 0.0 0.00 0.08 0.00 95 1016.6
20260503060125 0 262 0.0 0.0 0.00 0.08 0.00 93 1016.9
20260503054601 1 262 0.0 0.0 0.00 0.08 0.00 93 1017.0
20260503053053 1 262 0.0 0.0 0.00 0.08 0.00 92 1017.1
20260503051552 1 262 0.0 0.0 0.00 0.08 0.00 91 1017.2
20260503050046 2 262 0.0 0.0 0.00 0.08 0.00 90 1017.2
20260503044544 2 262 0.0 0.0 0.00 0.08 0.00 89 1017.3
20260503043043 3 262 0.0 0.0 0.00 0.08 0.00 88 1017.3
20260503041542 3 262 0.0 0.0 0.00 0.08 0.00 88 1017.3
20260503040049 3 262 0.0 0.0 0.00 0.08 0.00 88 1017.3
20260503034536 3 262 0.0 0.0 0.00 0.08 0.08 89 1017.4
20260503033039 3 275 0.0 0.0 0.00 0.08 0.08 88 1017.5
20260503031536 3 276 0.0 0.0 0.00 0.08 0.08 88 1017.5
20260503030045 3 276 0.0 0.0 0.00 0.08 0.08 86 1017.6
20260503024535 3 276 0.0 0.0 0.00 0.08 0.08 85 1017.7
20260503023035 3 276 0.0 0.0 0.00 0.08 0.08 84 1017.9
20260503021534 3 276 0.0 0.0 0.00 0.08 0.08 82 1018.0
20260503020036 3 276 0.0 0.0 0.00 0.08 0.08 82 1017.9
20260503014533 3 276 0.0 0.0 0.00 0.08 0.08 81 1017.7
20260503013037 4 275 0.0 0.0 0.00 0.08 0.08 79 1017.8
20260503011534 4 276 0.0 0.0 0.00 0.08 0.08 77 1017.7
20260503010035 4 277 0.0 0.0 0.00 0.08 0.08 76 1017.6
20260503004531 5 278 0.0 0.0 0.00 0.08 0.08 73 1017.7
20260503003029 5 281 0.0 0.0 0.00 0.08 0.08 70 1017.5